Time,TemperatureF,DewpointF,PressureIn,WindDirection,WindDirectionDegrees,WindSpeedMPH,WindSpeedGustMPH,Humidity,HourlyPrecipIn,Conditions,Clouds,dailyrainin,SoftwareType,DateUTC
2013-05-09 00:01:00,55.8,45.3,29.96,SSE,153,0.0,0.0,68,0.00,,,0.00,meteohub,2013-05-09 04:01:00,
2013-05-09 00:06:00,55.2,45.7,29.96,SSE,152,0.0,0.0,70,0.00,,,0.00,meteohub,2013-05-09 04:06:00,
2013-05-09 00:12:00,54.9,45.0,29.96,SSE,147,0.0,0.0,69,0.00,,,0.00,meteohub,2013-05-09 04:12:00,
2013-05-09 00:17:00,54.7,44.2,29.96,SSE,147,0.0,1.0,68,0.00,,,0.00,meteohub,2013-05-09 04:17:00,
2013-05-09 00:21:00,54.3,44.4,29.95,SE,146,0.0,1.0,69,0.00,,,0.00,meteohub,2013-05-09 04:21:00,
2013-05-09 00:27:00,54.3,45.1,29.95,SE,146,0.0,1.0,71,0.00,,,0.00,meteohub,2013-05-09 04:27:00,
2013-05-09 00:32:00,54.0,45.1,29.95,SSE,147,0.0,0.0,72,0.00,,,0.00,meteohub,2013-05-09 04:32:00,
2013-05-09 00:37:00,53.8,45.3,29.95,SSE,147,0.0,0.0,73,0.00,,,0.00,meteohub,2013-05-09 04:37:00,
2013-05-09 00:42:00,53.6,45.9,29.95,SSE,147,0.0,0.0,75,0.00,,,0.00,meteohub,2013-05-09 04:42:00,
2013-05-09 00:47:00,53.2,46.2,29.95,SSE,147,0.0,0.0,77,0.00,,,0.00,meteohub,2013-05-09 04:47:00,
2013-05-09 00:52:00,53.1,45.3,29.95,SSE,147,0.0,0.0,75,0.00,,,0.00,meteohub,2013-05-09 04:52:00,
2013-05-09 00:57:00,52.9,45.1,29.95,SSE,147,0.0,0.0,75,0.00,,,0.00,meteohub,2013-05-09 04:57:00,
2013-05-09 01:02:00,52.9,44.4,29.95,SSE,147,0.0,0.0,73,0.00,,,0.00,meteohub,2013-05-09 05:02:00,
2013-05-09 01:07:00,53.1,44.6,29.94,SSW,205,0.0,0.0,73,0.00,,,0.00,meteohub,2013-05-09 05:07:00,
2013-05-09 01:12:00,53.2,44.4,29.94,SSW,205,0.0,1.0,72,0.00,,,0.00,meteohub,2013-05-09 05:12:00,
2013-05-09 01:17:00,53.1,43.9,29.94,SSW,205,0.0,1.0,71,0.00,,,0.00,meteohub,2013-05-09 05:17:00,
2013-05-09 01:22:00,53.1,43.5,29.94,SW,230,0.0,1.0,70,0.00,,,0.00,meteohub,2013-05-09 05:22:00,
2013-05-09 01:27:00,53.2,43.7,29.94,SW,231,1.0,0.0,70,0.00,,,0.00,meteohub,2013-05-09 05:27:00,
2013-05-09 01:32:00,53.1,44.2,29.94,WSW,245,0.0,1.0,72,0.00,,,0.00,meteohub,2013-05-09 05:32:00,
2013-05-09 01:37:00,53.1,44.6,29.94,WSW,245,0.0,1.0,73,0.00,,,0.00,meteohub,2013-05-09 05:37:00,
2013-05-09 01:42:00,52.9,44.4,29.94,WSW,245,0.0,1.0,73,0.00,,,0.00,meteohub,2013-05-09 05:42:00,
2013-05-09 01:47:00,52.5,43.7,29.94,WSW,245,0.0,0.0,72,0.00,,,0.00,meteohub,2013-05-09 05:47:00,
2013-05-09 01:52:00,52.2,43.7,29.94,WSW,245,0.0,0.0,73,0.00,,,0.00,meteohub,2013-05-09 05:52:00,
2013-05-09 01:57:00,51.8,43.3,29.94,WSW,245,0.0,0.0,73,0.00,,,0.00,meteohub,2013-05-09 05:57:00,
2013-05-09 02:02:00,51.4,44.4,29.94,WSW,245,0.0,0.0,77,0.00,,,0.00,meteohub,2013-05-09 06:02:00,
2013-05-09 02:07:00,51.1,44.1,29.94,WSW,245,0.0,0.0,77,0.00,,,0.00,meteohub,2013-05-09 06:07:00,
2013-05-09 02:12:00,50.7,43.7,29.94,WSW,245,0.0,0.0,77,0.00,,,0.00,meteohub,2013-05-09 06:12:00,
2013-05-09 02:17:00,50.4,43.7,29.94,WSW,245,0.0,0.0,78,0.00,,,0.00,meteohub,2013-05-09 06:17:00,
2013-05-09 02:22:00,50.2,44.6,29.94,WSW,245,0.0,0.0,81,0.00,,,0.00,meteohub,2013-05-09 06:22:00,
2013-05-09 02:27:00,50.0,44.4,29.94,WSW,245,0.0,0.0,81,0.00,,,0.00,meteohub,2013-05-09 06:27:00,
2013-05-09 02:32:00,49.8,43.2,29.94,WSW,245,0.0,0.0,78,0.00,,,0.00,meteohub,2013-05-09 06:32:00,
2013-05-09 02:37:00,49.8,44.6,29.94,WSW,245,0.0,0.0,82,0.00,,,0.00,meteohub,2013-05-09 06:37:00,
2013-05-09 02:42:00,49.6,45.0,29.93,SW,219,0.0,1.0,84,0.00,,,0.00,meteohub,2013-05-09 06:42:00,
2013-05-09 02:47:00,49.5,44.2,29.93,South,188,0.0,1.0,82,0.00,,,0.00,meteohub,2013-05-09 06:47:00,
2013-05-09 02:52:00,49.3,44.1,29.93,South,187,0.0,1.0,82,0.00,,,0.00,meteohub,2013-05-09 06:52:00,
2013-05-09 02:57:00,49.3,43.7,29.93,South,187,0.0,1.0,81,0.00,,,0.00,meteohub,2013-05-09 06:57:00,
2013-05-09 03:02:00,49.3,43.7,29.93,SSW,192,0.0,0.0,81,0.00,,,0.00,meteohub,2013-05-09 07:02:00,
2013-05-09 03:07:00,49.3,43.7,29.93,SSW,192,0.0,0.0,81,0.00,,,0.00,meteohub,2013-05-09 07:07:00,
2013-05-09 03:12:00,49.3,43.7,29.93,SSW,192,0.0,0.0,81,0.00,,,0.00,meteohub,2013-05-09 07:12:00,
2013-05-09 03:17:00,49.1,43.5,29.93,SSW,192,0.0,0.0,81,0.00,,,0.00,meteohub,2013-05-09 07:17:00,
2013-05-09 03:22:00,48.9,44.1,29.93,SSW,192,0.0,0.0,83,0.00,,,0.00,meteohub,2013-05-09 07:22:00,
2013-05-09 03:27:00,48.6,43.7,29.93,SSW,192,0.0,0.0,83,0.00,,,0.00,meteohub,2013-05-09 07:27:00,
2013-05-09 03:32:00,48.4,43.5,29.93,SSW,192,0.0,0.0,83,0.00,,,0.00,meteohub,2013-05-09 07:32:00,
2013-05-09 03:37:00,48.6,43.7,29.92,South,191,0.0,0.0,83,0.00,,,0.00,meteohub,2013-05-09 07:37:00,
2013-05-09 03:42:00,48.7,44.1,29.92,SSW,192,0.0,0.0,84,0.00,,,0.00,meteohub,2013-05-09 07:42:00,
2013-05-09 03:47:00,48.6,44.2,29.93,SSW,192,0.0,0.0,85,0.00,,,0.00,meteohub,2013-05-09 07:47:00,
2013-05-09 03:52:00,48.4,43.5,29.92,SSW,192,0.0,0.0,83,0.00,,,0.00,meteohub,2013-05-09 07:52:00,
2013-05-09 03:57:00,48.2,43.3,29.92,SSW,192,0.0,0.0,83,0.00,,,0.00,meteohub,2013-05-09 07:57:00,
2013-05-09 04:02:00,48.0,43.3,29.92,SSW,192,0.0,0.0,84,0.00,,,0.00,meteohub,2013-05-09 08:02:00,
2013-05-09 04:07:00,47.8,43.5,29.92,SSW,192,0.0,0.0,85,0.00,,,0.00,meteohub,2013-05-09 08:07:00,
2013-05-09 04:12:00,47.7,43.7,29.92,SSW,192,0.0,0.0,86,0.00,,,0.00,meteohub,2013-05-09 08:12:00,
2013-05-09 04:17:00,47.5,43.2,29.93,SSW,192,0.0,0.0,85,0.00,,,0.00,meteohub,2013-05-09 08:17:00,
2013-05-09 04:22:00,47.3,43.0,29.92,SSW,192,0.0,0.0,85,0.00,,,0.00,meteohub,2013-05-09 08:22:00,
2013-05-09 04:27:00,47.1,43.2,29.92,SSW,192,0.0,0.0,86,0.00,,,0.00,meteohub,2013-05-09 08:27:00,
2013-05-09 04:32:00,46.9,43.0,29.93,SSW,192,0.0,0.0,86,0.00,,,0.00,meteohub,2013-05-09 08:32:00,
2013-05-09 04:37:00,46.6,42.6,29.93,SSW,192,0.0,0.0,86,0.00,,,0.00,meteohub,2013-05-09 08:37:00,
2013-05-09 04:42:00,46.4,42.8,29.92,SSW,192,0.0,0.0,87,0.00,,,0.00,meteohub,2013-05-09 08:42:00,
2013-05-09 04:47:00,46.2,42.6,29.92,South,191,0.0,0.0,87,0.00,,,0.00,meteohub,2013-05-09 08:47:00,
2013-05-09 04:52:00,46.0,42.6,29.92,SSW,192,0.0,0.0,88,0.00,,,0.00,meteohub,2013-05-09 08:52:00,
2013-05-09 04:57:00,46.0,42.6,29.92,SSW,192,0.0,0.0,88,0.00,,,0.00,meteohub,2013-05-09 08:57:00,
2013-05-09 05:02:00,45.9,42.4,29.92,SSE,150,0.0,1.0,88,0.00,,,0.00,meteohub,2013-05-09 09:02:00,
2013-05-09 05:07:00,45.7,42.3,29.92,SSE,150,0.0,1.0,88,0.00,,,0.00,meteohub,2013-05-09 09:07:00,
2013-05-09 05:12:00,45.5,42.1,29.92,SSE,150,0.0,1.0,88,0.00,,,0.00,meteohub,2013-05-09 09:12:00,
2013-05-09 05:17:00,45.3,41.9,29.92,SSE,150,0.0,1.0,88,0.00,,,0.00,meteohub,2013-05-09 09:17:00,
2013-05-09 05:22:00,45.5,42.1,29.92,SSE,154,0.0,0.0,88,0.00,,,0.00,meteohub,2013-05-09 09:22:00,
2013-05-09 05:27:00,45.9,42.4,29.92,SSE,158,1.0,1.0,88,0.00,,,0.00,meteohub,2013-05-09 09:27:00,
2013-05-09 05:32:00,46.0,42.4,29.92,SSE,158,0.0,1.0,87,0.00,,,0.00,meteohub,2013-05-09 09:32:00,
2013-05-09 05:37:00,46.0,42.4,29.92,SSE,158,0.0,1.0,87,0.00,,,0.00,meteohub,2013-05-09 09:37:00,
2013-05-09 05:42:00,46.0,42.4,29.93,NNW,330,1.0,1.0,87,0.00,,,0.00,meteohub,2013-05-09 09:42:00,
2013-05-09 05:47:00,45.7,41.7,29.93,WNW,292,1.0,5.0,86,0.00,,,0.00,meteohub,2013-05-09 09:47:00,
2013-05-09 05:52:00,45.5,41.9,29.93,North,358,0.0,5.0,87,0.00,,,0.00,meteohub,2013-05-09 09:52:00,
2013-05-09 05:57:00,45.7,42.3,29.93,North,358,0.0,5.0,88,0.00,,,0.00,meteohub,2013-05-09 09:57:00,
2013-05-09 06:02:00,45.7,42.6,29.93,ENE,61,0.0,2.0,89,0.00,,,0.00,meteohub,2013-05-09 10:02:00,
2013-05-09 06:07:00,45.5,42.4,29.93,ESE,123,0.0,1.0,89,0.00,,,0.00,meteohub,2013-05-09 10:07:00,
2013-05-09 06:12:00,45.3,42.3,29.94,ESE,117,0.0,1.0,89,0.00,,,0.00,meteohub,2013-05-09 10:12:00,
2013-05-09 06:17:00,45.1,42.4,29.94,ESE,117,0.0,1.0,90,0.00,,,0.00,meteohub,2013-05-09 10:17:00,
2013-05-09 06:22:00,45.1,42.6,29.94,ESE,117,0.0,0.0,91,0.00,,,0.00,meteohub,2013-05-09 10:22:00,
2013-05-09 06:27:00,45.0,42.3,29.94,ESE,117,0.0,0.0,90,0.00,,,0.00,meteohub,2013-05-09 10:27:00,
2013-05-09 06:32:00,45.0,42.3,29.94,ESE,117,0.0,0.0,90,0.00,,,0.00,meteohub,2013-05-09 10:32:00,
2013-05-09 06:37:00,45.0,42.3,29.94,ESE,119,0.0,0.0,90,0.00,,,0.00,meteohub,2013-05-09 10:37:00,
2013-05-09 06:42:00,45.0,41.9,29.94,ESE,118,0.0,0.0,89,0.00,,,0.00,meteohub,2013-05-09 10:42:00,
2013-05-09 06:47:00,45.0,41.9,29.94,ESE,119,0.0,0.0,89,0.00,,,0.00,meteohub,2013-05-09 10:47:00,
2013-05-09 06:52:00,45.0,41.9,29.94,ESE,119,0.0,0.0,89,0.00,,,0.00,meteohub,2013-05-09 10:52:00,
2013-05-09 06:57:00,45.0,42.3,29.94,ESE,119,0.0,0.0,90,0.00,,,0.00,meteohub,2013-05-09 10:57:00,
2013-05-09 07:02:00,45.3,42.6,29.94,South,169,0.0,1.0,90,0.00,,,0.00,meteohub,2013-05-09 11:02:00,
2013-05-09 07:07:00,45.7,42.6,29.94,South,169,0.0,1.0,89,0.00,,,0.00,meteohub,2013-05-09 11:07:00,
2013-05-09 07:12:00,46.2,43.2,29.94,South,169,0.0,1.0,89,0.00,,,0.00,meteohub,2013-05-09 11:12:00,
2013-05-09 07:17:00,47.1,43.7,29.94,South,169,0.0,0.0,88,0.00,,,0.00,meteohub,2013-05-09 11:17:00,
2013-05-09 07:22:00,48.0,43.7,29.94,South,169,0.0,1.0,85,0.00,,,0.00,meteohub,2013-05-09 11:22:00,
2013-05-09 07:27:00,48.9,44.2,29.94,ENE,57,1.0,1.0,84,0.00,,,0.00,meteohub,2013-05-09 11:27:00,
2013-05-09 07:32:00,50.2,44.2,29.94,ENE,58,0.0,1.0,80,0.00,,,0.00,meteohub,2013-05-09 11:32:00,
2013-05-09 07:37:00,51.4,44.4,29.94,SSE,165,0.0,1.0,77,0.00,,,0.00,meteohub,2013-05-09 11:37:00,
2013-05-09 07:42:00,52.5,44.4,29.94,ESE,123,0.0,2.0,74,0.00,,,0.00,meteohub,2013-05-09 11:42:00,
2013-05-09 07:47:00,53.4,44.6,29.94,ESE,105,0.0,2.0,72,0.00,,,0.00,meteohub,2013-05-09 11:47:00,
2013-05-09 07:52:00,54.5,45.0,29.94,ESE,104,0.0,2.0,70,0.00,,,0.00,meteohub,2013-05-09 11:52:00,
2013-05-09 07:57:00,55.4,45.0,29.94,ESE,122,0.0,1.0,68,0.00,,,0.00,meteohub,2013-05-09 11:57:00,
2013-05-09 08:02:00,56.7,45.5,29.94,East,79,0.0,1.0,66,0.00,,,0.00,meteohub,2013-05-09 12:02:00,
2013-05-09 08:07:00,57.0,45.3,29.95,ENE,61,0.0,1.0,65,0.00,,,0.00,meteohub,2013-05-09 12:07:00,
2013-05-09 08:12:00,56.5,45.3,29.95,ENE,75,0.0,1.0,66,0.00,,,0.00,meteohub,2013-05-09 12:12:00,
2013-05-09 08:17:00,57.4,46.0,29.95,ESE,115,0.0,1.0,66,0.00,,,0.00,meteohub,2013-05-09 12:17:00,
2013-05-09 08:22:00,58.6,46.9,29.94,ESE,116,0.0,1.0,65,0.00,,,0.00,meteohub,2013-05-09 12:22:00,
2013-05-09 08:27:00,59.7,47.5,29.94,ESE,116,0.0,1.0,64,0.00,,,0.00,meteohub,2013-05-09 12:27:00,
2013-05-09 08:32:00,60.6,47.5,29.94,NNE,33,0.0,1.0,62,0.00,,,0.00,meteohub,2013-05-09 12:32:00,
2013-05-09 08:37:00,60.3,47.1,29.94,NNE,32,0.0,1.0,62,0.00,,,0.00,meteohub,2013-05-09 12:37:00,
2013-05-09 08:42:00,60.4,47.3,29.94,NNE,33,0.0,1.0,62,0.00,,,0.00,meteohub,2013-05-09 12:42:00,
2013-05-09 08:47:00,61.5,47.1,29.95,NE,43,0.0,1.0,59,0.00,,,0.00,meteohub,2013-05-09 12:47:00,
2013-05-09 08:52:00,63.1,47.1,29.94,ENE,75,0.0,1.0,56,0.00,,,0.00,meteohub,2013-05-09 12:52:00,
2013-05-09 08:57:00,64.2,47.3,29.94,ENE,75,0.0,1.0,54,0.00,,,0.00,meteohub,2013-05-09 12:57:00,
2013-05-09 09:02:00,64.6,47.1,29.94,NE,48,0.0,1.0,53,0.00,,,0.00,meteohub,2013-05-09 13:02:00,
2013-05-09 09:07:00,64.9,47.8,29.94,ENE,70,0.0,1.0,54,0.00,,,0.00,meteohub,2013-05-09 13:07:00,
2013-05-09 09:12:00,65.7,48.0,29.94,ENE,70,0.0,1.0,53,0.00,,,0.00,meteohub,2013-05-09 13:12:00,
2013-05-09 09:17:00,66.4,46.6,29.94,SE,127,0.0,1.0,49,0.00,,,0.00,meteohub,2013-05-09 13:17:00,
2013-05-09 09:22:00,67.5,47.1,29.94,SE,138,0.0,1.0,48,0.00,,,0.00,meteohub,2013-05-09 13:22:00,
2013-05-09 09:27:00,68.0,46.4,29.94,SE,134,0.0,0.0,46,0.00,,,0.00,meteohub,2013-05-09 13:27:00,
2013-05-09 09:32:00,67.3,42.1,29.94,NNW,340,1.0,2.0,40,0.00,,,0.00,meteohub,2013-05-09 13:32:00,
2013-05-09 09:37:00,66.9,39.7,29.94,North,353,1.0,2.0,37,0.00,,,0.00,meteohub,2013-05-09 13:37:00,
2013-05-09 09:42:00,66.9,41.2,29.94,NNW,347,2.0,2.0,39,0.00,,,0.00,meteohub,2013-05-09 13:42:00,
2013-05-09 09:47:00,67.5,39.6,29.94,NNW,344,1.0,2.0,36,0.00,,,0.00,meteohub,2013-05-09 13:47:00,
2013-05-09 09:52:00,67.8,39.9,29.94,WNW,293,0.0,2.0,36,0.00,,,0.00,meteohub,2013-05-09 13:52:00,
2013-05-09 09:57:00,68.4,40.3,29.94,West,280,0.0,2.0,36,0.00,,,0.00,meteohub,2013-05-09 13:57:00,
2013-05-09 10:02:00,68.5,39.7,29.93,WNW,282,1.0,2.0,35,0.00,,,0.00,meteohub,2013-05-09 14:02:00,
2013-05-09 10:07:00,68.7,39.9,29.94,NNW,342,0.0,2.0,35,0.00,,,0.00,meteohub,2013-05-09 14:07:00,
2013-05-09 10:12:00,69.3,40.5,29.94,NW,318,0.0,3.0,35,0.00,,,0.00,meteohub,2013-05-09 14:12:00,
2013-05-09 10:17:00,69.4,39.9,29.93,SW,236,1.0,3.0,34,0.00,,,0.00,meteohub,2013-05-09 14:17:00,
2013-05-09 10:22:00,70.0,41.0,29.93,NNE,25,1.0,4.0,35,0.00,,,0.00,meteohub,2013-05-09 14:22:00,
2013-05-09 10:27:00,70.0,41.0,29.93,SSW,196,0.0,4.0,35,0.00,,,0.00,meteohub,2013-05-09 14:27:00,
2013-05-09 10:32:00,70.3,41.4,29.93,SSW,193,0.0,4.0,35,0.00,,,0.00,meteohub,2013-05-09 14:32:00,
2013-05-09 10:37:00,71.2,41.4,29.93,ESE,122,0.0,3.0,34,0.00,,,0.00,meteohub,2013-05-09 14:37:00,
2013-05-09 10:42:00,72.0,42.1,29.93,SW,236,0.0,3.0,34,0.00,,,0.00,meteohub,2013-05-09 14:42:00,
2013-05-09 10:47:00,72.7,43.5,29.93,NE,48,0.0,3.0,35,0.00,,,0.00,meteohub,2013-05-09 14:47:00,
2013-05-09 10:52:00,73.2,43.2,29.93,West,271,2.0,3.0,34,0.00,,,0.00,meteohub,2013-05-09 14:52:00,
2013-05-09 10:57:00,72.7,41.9,29.93,ESE,122,0.0,3.0,33,0.00,,,0.00,meteohub,2013-05-09 14:57:00,
2013-05-09 11:02:00,73.2,43.2,29.93,SSE,165,0.0,3.0,34,0.00,,,0.00,meteohub,2013-05-09 15:02:00,
2013-05-09 11:07:00,73.9,42.3,29.93,WNW,290,3.0,3.0,32,0.00,,,0.00,meteohub,2013-05-09 15:07:00,
2013-05-09 11:12:00,73.9,43.0,29.93,ESE,122,0.0,3.0,33,0.00,,,0.00,meteohub,2013-05-09 15:12:00,
2013-05-09 11:17:00,74.1,42.4,29.93,NW,321,1.0,3.0,32,0.00,,,0.00,meteohub,2013-05-09 15:17:00,
2013-05-09 11:22:00,74.1,42.4,29.93,North,10,0.0,5.0,32,0.00,,,0.00,meteohub,2013-05-09 15:22:00,
2013-05-09 11:27:00,74.3,43.3,29.93,SSE,162,1.0,5.0,33,0.00,,,0.00,meteohub,2013-05-09 15:27:00,
2013-05-09 11:32:00,74.8,43.9,29.93,NNW,340,4.0,4.0,33,0.00,,,0.00,meteohub,2013-05-09 15:32:00,
2013-05-09 11:37:00,74.1,43.2,29.93,North,354,0.0,6.0,33,0.00,,,0.00,meteohub,2013-05-09 15:37:00,
2013-05-09 11:42:00,75.2,44.1,29.93,SW,227,1.0,6.0,33,0.00,,,0.00,meteohub,2013-05-09 15:42:00,
2013-05-09 11:47:00,75.4,43.5,29.93,North,2,1.0,6.0,32,0.00,,,0.00,meteohub,2013-05-09 15:47:00,
2013-05-09 11:52:00,74.8,43.9,29.93,WNW,285,3.0,7.0,33,0.00,,,0.00,meteohub,2013-05-09 15:52:00,
2013-05-09 11:57:00,74.7,43.7,29.93,NW,314,1.0,7.0,33,0.00,,,0.00,meteohub,2013-05-09 15:57:00,
2013-05-09 12:02:00,75.4,45.1,29.93,NNE,14,1.0,7.0,34,0.00,,,0.00,meteohub,2013-05-09 16:02:00,
2013-05-09 12:07:00,75.6,44.4,29.93,East,98,0.0,6.0,33,0.00,,,0.00,meteohub,2013-05-09 16:07:00,
2013-05-09 12:12:00,75.6,42.8,29.93,West,277,2.0,5.0,31,0.00,,,0.00,meteohub,2013-05-09 16:12:00,
2013-05-09 12:17:00,75.4,43.5,29.93,WNW,290,3.0,7.0,32,0.00,,,0.00,meteohub,2013-05-09 16:17:00,
2013-05-09 12:22:00,75.2,43.3,29.93,West,272,4.0,7.0,32,0.00,,,0.00,meteohub,2013-05-09 16:22:00,
2013-05-09 12:27:00,75.0,43.9,29.93,North,1,2.0,7.0,33,0.00,,,0.00,meteohub,2013-05-09 16:27:00,
2013-05-09 12:32:00,75.0,43.2,29.93,NNE,21,1.0,7.0,32,0.00,,,0.00,meteohub,2013-05-09 16:32:00,
2013-05-09 12:37:00,75.0,43.2,29.93,SE,143,1.0,7.0,32,0.00,,,0.00,meteohub,2013-05-09 16:37:00,
2013-05-09 12:42:00,75.4,43.5,29.93,SSW,204,6.0,8.0,32,0.00,,,0.00,meteohub,2013-05-09 16:42:00,
2013-05-09 12:47:00,75.4,44.2,29.93,WNW,294,7.0,8.0,33,0.00,,,0.00,meteohub,2013-05-09 16:47:00,
2013-05-09 12:51:00,74.8,43.9,29.93,West,276,4.0,9.0,33,0.00,,,0.00,meteohub,2013-05-09 16:51:00,
2013-05-09 12:57:00,74.7,45.1,29.93,West,275,4.0,11.0,35,0.00,,,0.00,meteohub,2013-05-09 16:57:00,
2013-05-09 13:02:00,74.5,45.0,29.93,West,268,4.0,11.0,35,0.00,,,0.00,meteohub,2013-05-09 17:02:00,
2013-05-09 13:07:00,74.1,44.8,29.93,SW,219,6.0,11.0,35,0.00,,,0.00,meteohub,2013-05-09 17:07:00,
2013-05-09 13:12:00,73.9,45.3,29.93,WNW,295,2.0,11.0,36,0.00,,,0.00,meteohub,2013-05-09 17:12:00,
2013-05-09 13:17:00,74.5,46.6,29.93,SE,131,0.0,9.0,37,0.00,,,0.00,meteohub,2013-05-09 17:17:00,
2013-05-09 13:22:00,74.8,46.0,29.93,SW,214,8.0,9.0,36,0.00,,,0.00,meteohub,2013-05-09 17:22:00,
2013-05-09 13:27:00,74.1,46.2,29.93,WNW,299,4.0,10.0,37,0.00,,,0.00,meteohub,2013-05-09 17:27:00,
2013-05-09 13:32:00,74.1,46.9,29.93,WNW,302,5.0,10.0,38,0.00,,,0.00,meteohub,2013-05-09 17:32:00,
2013-05-09 13:37:00,74.7,46.6,29.93,NNW,333,4.0,10.0,37,0.00,,,0.00,meteohub,2013-05-09 17:37:00,
2013-05-09 13:42:00,74.7,46.6,29.93,WNW,296,5.0,9.0,37,0.00,,,0.00,meteohub,2013-05-09 17:42:00,
2013-05-09 13:47:00,74.5,46.6,29.93,WSW,242,6.0,10.0,37,0.00,,,0.00,meteohub,2013-05-09 17:47:00,
2013-05-09 13:52:00,74.3,47.1,29.93,SW,230,0.0,10.0,38,0.00,,,0.00,meteohub,2013-05-09 17:52:00,
2013-05-09 13:57:00,74.3,47.1,29.93,West,273,3.0,10.0,38,0.00,,,0.00,meteohub,2013-05-09 17:57:00,
2013-05-09 14:02:00,74.1,46.9,29.93,WSW,251,6.0,10.0,38,0.00,,,0.00,meteohub,2013-05-09 18:02:00,
2013-05-09 14:07:00,73.8,46.6,29.93,WSW,247,3.0,9.0,38,0.00,,,0.00,meteohub,2013-05-09 18:07:00,
2013-05-09 14:12:00,73.9,46.8,29.92,WSW,255,2.0,9.0,38,0.00,,,0.00,meteohub,2013-05-09 18:12:00,
2013-05-09 14:17:00,73.8,45.9,29.92,NW,320,9.0,10.0,37,0.00,,,0.00,meteohub,2013-05-09 18:17:00,
2013-05-09 14:22:00,73.8,46.6,29.93,WNW,292,4.0,11.0,38,0.00,,,0.00,meteohub,2013-05-09 18:22:00,
2013-05-09 14:27:00,73.9,46.0,29.92,West,261,4.0,11.0,37,0.00,,,0.00,meteohub,2013-05-09 18:27:00,
2013-05-09 14:32:00,74.1,45.5,29.92,WNW,287,8.0,11.0,36,0.00,,,0.00,meteohub,2013-05-09 18:32:00,
2013-05-09 14:37:00,73.9,45.3,29.92,North,350,7.0,9.0,36,0.00,,,0.00,meteohub,2013-05-09 18:37:00,
2013-05-09 14:42:00,73.8,44.4,29.92,NW,317,3.0,9.0,35,0.00,,,0.00,meteohub,2013-05-09 18:42:00,
2013-05-09 14:47:00,73.8,45.1,29.92,WSW,239,4.0,10.0,36,0.00,,,0.00,meteohub,2013-05-09 18:47:00,
2013-05-09 14:52:00,73.9,45.3,29.92,West,272,3.0,10.0,36,0.00,,,0.00,meteohub,2013-05-09 18:52:00,
2013-05-09 14:57:00,73.9,44.6,29.92,NNW,332,5.0,10.0,35,0.00,,,0.00,meteohub,2013-05-09 18:57:00,
2013-05-09 15:02:00,74.1,45.5,29.91,West,272,3.0,10.0,36,0.00,,,0.00,meteohub,2013-05-09 19:02:00,
2013-05-09 15:07:00,74.7,45.1,29.91,West,273,7.0,10.0,35,0.00,,,0.00,meteohub,2013-05-09 19:07:00,
2013-05-09 15:12:00,74.8,46.0,29.91,WSW,248,1.0,10.0,36,0.00,,,0.00,meteohub,2013-05-09 19:12:00,
2013-05-09 15:17:00,74.8,45.3,29.91,West,280,3.0,8.0,35,0.00,,,0.00,meteohub,2013-05-09 19:17:00,
2013-05-09 15:22:00,74.7,45.9,29.91,West,268,5.0,8.0,36,0.00,,,0.00,meteohub,2013-05-09 19:22:00,
2013-05-09 15:27:00,75.0,46.2,29.91,WNW,290,7.0,8.0,36,0.00,,,0.00,meteohub,2013-05-09 19:27:00,
2013-05-09 15:32:00,74.8,46.0,29.91,WNW,285,3.0,8.0,36,0.00,,,0.00,meteohub,2013-05-09 19:32:00,
2013-05-09 15:37:00,75.4,47.3,29.91,WNW,290,4.0,8.0,37,0.00,,,0.00,meteohub,2013-05-09 19:37:00,
2013-05-09 15:42:00,75.4,47.3,29.90,WSW,251,3.0,7.0,37,0.00,,,0.00,meteohub,2013-05-09 19:42:00,
2013-05-09 15:47:00,75.4,47.3,29.90,SW,229,6.0,8.0,37,0.00,,,0.00,meteohub,2013-05-09 19:47:00,
2013-05-09 15:52:00,75.4,46.6,29.90,South,169,4.0,9.0,36,0.00,,,0.00,meteohub,2013-05-09 19:52:00,
2013-05-09 15:57:00,75.4,47.3,29.90,WSW,252,4.0,10.0,37,0.00,,,0.00,meteohub,2013-05-09 19:57:00,
2013-05-09 16:02:00,75.6,46.8,29.90,West,269,4.0,10.0,36,0.00,,,0.00,meteohub,2013-05-09 20:02:00,
2013-05-09 16:07:00,75.7,47.7,29.90,WNW,289,3.0,10.0,37,0.00,,,0.00,meteohub,2013-05-09 20:07:00,
2013-05-09 16:12:00,75.7,46.9,29.90,West,259,3.0,7.0,36,0.00,,,0.00,meteohub,2013-05-09 20:12:00,
2013-05-09 16:17:00,75.4,48.0,29.90,SW,217,2.0,10.0,38,0.00,,,0.00,meteohub,2013-05-09 20:17:00,
2013-05-09 16:22:00,75.6,46.8,29.90,NNW,340,4.0,11.0,36,0.00,,,0.00,meteohub,2013-05-09 20:22:00,
2013-05-09 16:27:00,75.4,47.3,29.90,SSE,147,1.0,11.0,37,0.00,,,0.00,meteohub,2013-05-09 20:27:00,
2013-05-09 16:32:00,75.4,47.3,29.90,NNW,332,6.0,11.0,37,0.00,,,0.00,meteohub,2013-05-09 20:32:00,
2013-05-09 16:37:00,75.0,47.7,29.89,WSW,247,5.0,8.0,38,0.00,,,0.00,meteohub,2013-05-09 20:37:00,
2013-05-09 16:42:00,74.7,47.3,29.89,NNW,333,10.0,10.0,38,0.00,,,0.00,meteohub,2013-05-09 20:42:00,
2013-05-09 16:47:00,73.8,48.0,29.89,WSW,244,4.0,10.0,40,0.00,,,0.00,meteohub,2013-05-09 20:47:00,
2013-05-09 16:52:00,73.8,48.6,29.89,SW,224,3.0,11.0,41,0.00,,,0.00,meteohub,2013-05-09 20:52:00,
2013-05-09 16:57:00,73.6,48.4,29.89,West,259,3.0,11.0,41,0.00,,,0.00,meteohub,2013-05-09 20:57:00,
2013-05-09 17:02:00,73.4,48.9,29.89,WSW,251,2.0,11.0,42,0.00,,,0.00,meteohub,2013-05-09 21:02:00,
2013-05-09 17:07:00,73.2,49.5,29.89,West,266,2.0,8.0,43,0.00,,,0.00,meteohub,2013-05-09 21:07:00,
2013-05-09 17:12:00,72.9,49.1,29.89,SSW,209,1.0,8.0,43,0.00,,,0.00,meteohub,2013-05-09 21:12:00,
2013-05-09 17:17:00,72.1,49.1,29.89,NW,323,2.0,8.0,44,0.00,,,0.00,meteohub,2013-05-09 21:17:00,
2013-05-09 17:22:00,72.1,49.6,29.89,WSW,248,7.0,8.0,45,0.00,,,0.00,meteohub,2013-05-09 21:22:00,
2013-05-09 17:27:00,71.4,49.6,29.90,West,276,3.0,10.0,46,0.00,,,0.00,meteohub,2013-05-09 21:27:00,
2013-05-09 17:32:00,71.2,50.0,29.90,North,356,7.0,10.0,47,0.00,,,0.00,meteohub,2013-05-09 21:32:00,
2013-05-09 17:37:00,70.7,50.0,29.90,NNW,330,2.0,10.0,48,0.00,,,0.00,meteohub,2013-05-09 21:37:00,
2013-05-09 17:42:00,70.0,49.5,29.90,WNW,285,3.0,7.0,48,0.00,,,0.00,meteohub,2013-05-09 21:42:00,
2013-05-09 17:46:00,69.4,49.5,29.90,NW,310,3.0,9.0,49,0.00,,,0.00,meteohub,2013-05-09 21:46:00,
2013-05-09 17:52:00,69.1,49.6,29.90,West,273,4.0,9.0,50,0.00,,,0.00,meteohub,2013-05-09 21:52:00,
2013-05-09 17:57:00,68.5,48.6,29.90,West,280,2.0,9.0,49,0.00,,,0.00,meteohub,2013-05-09 21:57:00,
2013-05-09 18:02:00,67.8,48.6,29.90,NNW,348,0.0,7.0,50,0.00,,,0.00,meteohub,2013-05-09 22:02:00,
2013-05-09 18:07:00,67.8,48.6,29.90,WNW,285,1.0,7.0,50,0.00,,,0.00,meteohub,2013-05-09 22:07:00,
2013-05-09 18:12:00,68.5,49.1,29.91,NW,322,1.0,7.0,50,0.00,,,0.00,meteohub,2013-05-09 22:12:00,
2013-05-09 18:17:00,69.4,48.4,29.90,North,2,4.0,12.0,47,0.00,,,0.00,meteohub,2013-05-09 22:17:00,
2013-05-09 18:22:00,69.6,48.6,29.90,NNE,20,5.0,12.0,47,0.00,,,0.00,meteohub,2013-05-09 22:22:00,
2013-05-09 18:27:00,69.6,48.6,29.91,NNW,337,4.0,12.0,47,0.00,,,0.00,meteohub,2013-05-09 22:27:00,
2013-05-09 18:32:00,69.4,48.4,29.91,NNE,30,2.0,12.0,47,0.00,,,0.00,meteohub,2013-05-09 22:32:00,
2013-05-09 18:37:00,69.3,48.2,29.91,North,3,10.0,11.0,47,0.00,,,0.00,meteohub,2013-05-09 22:37:00,
2013-05-09 18:42:00,68.9,47.8,29.91,ENE,60,1.0,14.0,47,0.00,,,0.00,meteohub,2013-05-09 22:42:00,
2013-05-09 18:47:00,68.5,47.5,29.91,NNE,26,6.0,14.0,47,0.00,,,0.00,meteohub,2013-05-09 22:47:00,
2013-05-09 18:52:00,68.4,47.3,29.91,NNW,348,3.0,14.0,47,0.00,,,0.00,meteohub,2013-05-09 22:52:00,
2013-05-09 18:57:00,68.2,47.1,29.91,North,1,7.0,13.0,47,0.00,,,0.00,meteohub,2013-05-09 22:57:00,
2013-05-09 19:02:00,67.8,47.5,29.91,North,359,9.0,11.0,48,0.00,,,0.00,meteohub,2013-05-09 23:02:00,
2013-05-09 19:07:00,67.6,47.8,29.91,North,351,5.0,11.0,49,0.00,,,0.00,meteohub,2013-05-09 23:07:00,
2013-05-09 19:12:00,67.5,47.7,29.91,North,356,4.0,10.0,49,0.00,,,0.00,meteohub,2013-05-09 23:12:00,
2013-05-09 19:17:00,67.3,48.0,29.91,North,7,4.0,11.0,50,0.00,,,0.00,meteohub,2013-05-09 23:17:00,
2013-05-09 19:22:00,66.9,47.7,29.91,North,355,5.0,11.0,50,0.00,,,0.00,meteohub,2013-05-09 23:22:00,
2013-05-09 19:27:00,66.7,47.5,29.91,North,10,2.0,11.0,50,0.00,,,0.00,meteohub,2013-05-09 23:27:00,
2013-05-09 19:32:00,66.7,47.5,29.91,NNW,330,4.0,8.0,50,0.00,,,0.00,meteohub,2013-05-09 23:32:00,
2013-05-09 19:37:00,66.6,47.3,29.92,NNE,17,3.0,10.0,50,0.00,,,0.00,meteohub,2013-05-09 23:37:00,
2013-05-09 19:42:00,66.4,47.7,29.92,North,10,5.0,11.0,51,0.00,,,0.00,meteohub,2013-05-09 23:42:00,
2013-05-09 19:47:00,66.2,47.5,29.92,NW,323,4.0,11.0,51,0.00,,,0.00,meteohub,2013-05-09 23:47:00,
2013-05-09 19:52:00,65.8,47.1,29.92,North,352,1.0,11.0,51,0.00,,,0.00,meteohub,2013-05-09 23:52:00,
2013-05-09 19:57:00,65.7,47.1,29.93,WNW,285,3.0,10.0,51,0.00,,,0.00,meteohub,2013-05-09 23:57:00,
2013-05-09 20:02:00,64.8,47.3,29.93,NW,325,5.0,10.0,53,0.00,,,0.00,meteohub,2013-05-10 00:02:00,
2013-05-09 20:07:00,63.3,46.4,29.94,WNW,288,4.0,6.0,54,0.00,,,0.00,meteohub,2013-05-10 00:07:00,
2013-05-09 20:12:00,62.2,46.4,29.94,West,268,4.0,6.0,56,0.00,,,0.00,meteohub,2013-05-10 00:12:00,
2013-05-09 20:17:00,61.0,45.7,29.94,WNW,282,3.0,8.0,57,0.00,,,0.00,meteohub,2013-05-10 00:17:00,
2013-05-09 20:22:00,60.3,45.9,29.95,SSW,203,1.0,8.0,59,0.00,,,0.00,meteohub,2013-05-10 00:22:00,
2013-05-09 20:27:00,59.7,45.3,29.95,West,271,3.0,8.0,59,0.00,,,0.00,meteohub,2013-05-10 00:27:00,
2013-05-09 20:32:00,59.2,44.8,29.96,West,261,2.0,8.0,59,0.00,,,0.00,meteohub,2013-05-10 00:32:00,
2013-05-09 20:37:00,58.6,45.3,29.96,SW,220,1.0,6.0,61,0.00,,,0.00,meteohub,2013-05-10 00:37:00,
2013-05-09 20:42:00,58.3,45.3,29.96,WSW,252,5.0,6.0,62,0.00,,,0.00,meteohub,2013-05-10 00:42:00,
2013-05-09 20:47:00,57.9,46.2,29.96,NW,306,2.0,6.0,65,0.00,,,0.00,meteohub,2013-05-10 00:47:00,
2013-05-09 20:52:00,57.4,46.9,29.97,NNW,330,1.0,6.0,68,0.00,,,0.00,meteohub,2013-05-10 00:52:00,
2013-05-09 20:57:00,56.7,47.3,29.98,SSW,205,1.0,6.0,71,0.00,,,0.00,meteohub,2013-05-10 00:57:00,
2013-05-09 21:02:00,55.6,47.8,29.98,WSW,252,1.0,4.0,75,0.01,,,0.01,meteohub,2013-05-10 01:02:00,
2013-05-09 21:07:00,54.3,48.0,29.98,NW,305,2.0,3.0,79,0.02,,,0.02,meteohub,2013-05-10 01:07:00,
2013-05-09 21:12:00,53.4,47.7,29.98,NNW,327,4.0,5.0,81,0.02,,,0.02,meteohub,2013-05-10 01:12:00,
2013-05-09 21:17:00,52.9,48.2,29.98,West,263,1.0,5.0,84,0.02,,,0.02,meteohub,2013-05-10 01:17:00,
2013-05-09 21:22:00,52.3,48.2,29.98,SW,231,1.0,6.0,86,0.03,,,0.03,meteohub,2013-05-10 01:22:00,
2013-05-09 21:27:00,52.2,48.0,29.98,West,271,1.0,6.0,86,0.03,,,0.03,meteohub,2013-05-10 01:27:00,
2013-05-09 21:32:00,52.0,47.8,29.98,West,275,0.0,5.0,86,0.03,,,0.03,meteohub,2013-05-10 01:32:00,
2013-05-09 21:37:00,52.0,48.2,29.98,WSW,257,0.0,4.0,87,0.03,,,0.03,meteohub,2013-05-10 01:37:00,
2013-05-09 21:42:00,52.2,48.4,29.99,SSE,161,0.0,3.0,87,0.03,,,0.03,meteohub,2013-05-10 01:42:00,
2013-05-09 21:47:00,52.3,48.6,29.99,South,172,0.0,2.0,87,0.04,,,0.04,meteohub,2013-05-10 01:47:00,
2013-05-09 21:52:00,52.5,48.7,29.99,West,277,1.0,1.0,87,0.04,,,0.04,meteohub,2013-05-10 01:52:00,
2013-05-09 21:57:00,52.9,49.5,29.99,SW,227,1.0,2.0,88,0.04,,,0.04,meteohub,2013-05-10 01:57:00,
2013-05-09 22:02:00,53.1,49.6,29.99,West,279,1.0,2.0,88,0.03,,,0.04,meteohub,2013-05-10 02:02:00,
2013-05-09 22:07:00,52.9,49.5,29.99,NNW,331,1.0,2.0,88,0.02,,,0.04,meteohub,2013-05-10 02:07:00,
2013-05-09 22:12:00,52.7,49.5,29.98,West,279,2.0,3.0,89,0.02,,,0.04,meteohub,2013-05-10 02:12:00,
2013-05-09 22:17:00,52.5,49.6,29.98,WNW,299,2.0,3.0,90,0.01,,,0.04,meteohub,2013-05-10 02:17:00,
2013-05-09 22:22:00,52.3,49.5,29.97,North,350,1.0,3.0,90,0.01,,,0.04,meteohub,2013-05-10 02:22:00,
2013-05-09 22:27:00,52.3,49.8,29.97,NNW,333,5.0,5.0,91,0.01,,,0.04,meteohub,2013-05-10 02:27:00,
2013-05-09 22:32:00,52.7,49.8,29.97,WNW,287,2.0,7.0,90,0.02,,,0.05,meteohub,2013-05-10 02:32:00,
2013-05-09 22:37:00,52.5,49.6,29.96,North,351,9.0,9.0,90,0.02,,,0.05,meteohub,2013-05-10 02:37:00,
2013-05-09 22:42:00,52.3,49.5,29.96,North,356,2.0,9.0,90,0.01,,,0.05,meteohub,2013-05-10 02:42:00,
2013-05-09 22:47:00,52.2,49.3,29.96,ENE,74,0.0,9.0,90,0.01,,,0.05,meteohub,2013-05-10 02:47:00,
2013-05-09 22:52:00,52.2,49.3,29.97,WNW,297,1.0,9.0,90,0.01,,,0.05,meteohub,2013-05-10 02:52:00,
2013-05-09 22:57:00,52.2,49.1,29.98,North,11,4.0,7.0,89,0.01,,,0.05,meteohub,2013-05-10 02:57:00,
2013-05-09 23:02:00,52.0,48.6,29.98,NE,34,3.0,9.0,88,0.02,,,0.06,meteohub,2013-05-10 03:02:00,
2013-05-09 23:07:00,51.8,48.4,29.98,WSW,241,1.0,9.0,88,0.02,,,0.06,meteohub,2013-05-10 03:07:00,
2013-05-09 23:12:00,51.6,48.6,29.99,NNW,329,1.0,9.0,89,0.02,,,0.06,meteohub,2013-05-10 03:12:00,
2013-05-09 23:17:00,51.6,48.6,29.99,North,10,0.0,8.0,89,0.02,,,0.06,meteohub,2013-05-10 03:17:00,
2013-05-09 23:22:00,51.4,48.6,29.99,NNW,338,1.0,6.0,90,0.02,,,0.06,meteohub,2013-05-10 03:22:00,
2013-05-09 23:27:00,51.4,48.6,29.98,NW,326,2.0,4.0,90,0.02,,,0.07,meteohub,2013-05-10 03:27:00,
2013-05-09 23:32:00,51.3,48.4,29.98,NNW,343,2.0,3.0,90,0.02,,,0.07,meteohub,2013-05-10 03:32:00,
2013-05-09 23:37:00,51.1,48.6,29.98,North,357,2.0,5.0,91,0.02,,,0.07,meteohub,2013-05-10 03:37:00,
2013-05-09 23:43:00,50.9,48.7,29.98,NW,311,0.0,5.0,92,0.03,,,0.08,meteohub,2013-05-10 03:43:00,
2013-05-09 23:48:00,50.7,48.6,29.98,WNW,290,1.0,5.0,92,0.03,,,0.08,meteohub,2013-05-10 03:48:00,
2013-05-09 23:53:00,50.5,48.4,29.98,West,268,3.0,4.0,92,0.04,,,0.09,meteohub,2013-05-10 03:53:00,
2013-05-09 23:58:00,50.5,48.4,29.99,WNW,294,2.0,5.0,92,0.04,,,0.10,meteohub,2013-05-10 03:58:00,